This is the latest recevied weather packets stored in our database for station/object W1GK. If no packets are shown the sender has not sent any weather packets the latest 10 day(s).
| Time | Temp. | Humidity | Pressure | Rain* | Wind** | Luminosity | Snow |
|---|---|---|---|---|---|---|---|
| 1777769401 | 28.33° C | 6% | 1012 hPa | 0 mm | - | 237 W/m² | - |
| 1777768802 | 28.33° C | 6% | 1012 hPa | 0 mm | - | 186 W/m² | - |
| 1777768203 | 28.33° C | 6% | 1012.1 hPa | 0 mm | - | 204 W/m² | - |
| 1777767600 | 28.33° C | 6% | 1012.2 hPa | 0 mm | - | 202 W/m² | - |
| 1777767001 | 28.33° C | 6% | 1012.3 hPa | 0 mm | - | 181 W/m² | - |
| 1777766403 | 28.89° C | 5% | 1012.4 hPa | 0 mm | - | 172 W/m² | - |
| 1777765801 | 29.44° C | 6% | 1012.4 hPa | 0 mm | - | 364 W/m² | - |
| 1777765202 | 29.44° C | 6% | 1012.4 hPa | 0 mm | - | 555 W/m² | - |
| 1777764600 | 28.89° C | 6% | 1012.4 hPa | 0 mm | - | 269 W/m² | - |
| 1777763999 | 29.44° C | 5% | 1012.5 hPa | 0 mm | - | 316 W/m² | - |
| 1777763401 | 29.44° C | 5% | 1012.6 hPa | 0 mm | - | 476 W/m² | - |
| 1777762801 | 29.44° C | 5% | 1012.7 hPa | 0 mm | - | 455 W/m² | - |
| 1777762201 | 30° C | 6% | 1012.8 hPa | 0 mm | - | 582 W/m² | - |
| 1777761601 | 30.56° C | 5% | 1013 hPa | 0 mm | - | 591 W/m² | - |
| 1777761002 | 30° C | 6% | 1013.2 hPa | 0 mm | - | 663 W/m² | - |
| 1777760402 | 28.89° C | 6% | 1013.4 hPa | 0 mm | - | 645 W/m² | - |
| 1777759801 | 29.44° C | 6% | 1013.6 hPa | 0 mm | - | 686 W/m² | - |
| 1777759200 | 29.44° C | 6% | 1013.9 hPa | 0 mm | - | 779 W/m² | - |
| 1777758602 | 28.89° C | 6% | 1014.1 hPa | 0 mm | - | 782 W/m² | - |
| 1777758000 | 29.44° C | 6% | 1014.3 hPa | 0 mm | - | 752 W/m² | - |
| 1777757401 | 28.89° C | 6% | 1014.5 hPa | 0 mm | - | 759 W/m² | - |
| 1777756799 | 30.56° C | 5% | 1014.7 hPa | 0 mm | - | 729 W/m² | - |
| 1777756201 | 30.56° C | 5% | 1014.9 hPa | 0 mm | - | 353 W/m² | - |
| 1777755600 | 28.89° C | 6% | 1015 hPa | 0 mm | - | 105 W/m² | - |
| 1777755000 | 29.44° C | 6% | 1015.1 hPa | 0 mm | - | 183 W/m² | - |
* Rain latest hour (hover to see other rain measurements)
** Current wind speed in m/s (hover to see current wind gust speed)